Location: Alfortville
(48.8058°N, 2.4204°E)
Time: 14:38:23
(UTC+00:00)

Meteor 1-19 Rocket - Pass Details

Date: 12 December 2023
Orbit: 806 x 928 km, 81.2° (Epoch: 01 March)

Event Time Altitude Azimuth Distance (km) Brightness Sun altitude
Rises 05:40:10 0° 348° (NNW) 3,582 7.2 -17.7°
Reaches altitude 10° 05:42:42 10° 350° (N) 2,628 6.5 -17.3°
Maximum altitude 05:48:43 78° 77° (ENE) 932 4.5 -16.4°
Drops below altitude 10° 05:54:33 10° 164° (SSE) 2,544 7.1 -15.4°
Sets 05:56:57 0° 166° (SSE) 3,461 7.9 -15.1°
